This is the latest recevied weather packets stored in our database for station/object SR8WXL-13. If no packets are shown the sender has not sent any weather packets the latest 10 day(s).
| Time | Temp. | Humidity | Pressure | Rain* | Wind** | Luminosity | Snow |
|---|---|---|---|---|---|---|---|
| 1777489120 | 2.78° C | 59% | 1040.5 hPa | - | - | - | - |
| 1777488395 | 2.78° C | 58% | 1040.1 hPa | - | - | - | - |
| 1777487560 | 2.78° C | 57% | 1039.8 hPa | - | - | - | - |
| 1777486770 | 3.89° C | 56% | 1039.6 hPa | - | - | - | - |
| 1777485905 | 3.89° C | 53% | 1039.6 hPa | - | - | - | - |
| 1777485072 | 5° C | 49% | 1039.3 hPa | - | - | - | - |
| 1777484310 | 5° C | 47% | 1039.3 hPa | - | - | - | - |
| 1777483415 | 5° C | 44% | 1039 hPa | - | - | - | - |
| 1777482619 | 6.11° C | 44% | 1038.7 hPa | - | - | - | - |
| 1777481791 | 6.11° C | 42% | 1038.7 hPa | - | - | - | - |
| 1777481042 | 7.22° C | 41% | 1038.5 hPa | - | - | - | - |
| 1777480235 | 7.22° C | 40% | 1038.5 hPa | - | - | - | - |
| 1777479494 | 7.22° C | 39% | 1038.4 hPa | - | - | - | - |
| 1777478599 | 7.78° C | 38% | 1038.3 hPa | - | - | - | - |
| 1777477845 | 7.78° C | 38% | 1038 hPa | - | - | - | - |
| 1777476954 | 7.78° C | 37% | 1038 hPa | - | - | - | - |
| 1777476141 | 7.22° C | 38% | 1038 hPa | - | - | - | - |
| 1777475329 | 7.22° C | 36% | 1038 hPa | - | - | - | - |
| 1777474490 | 7.78° C | 34% | 1038 hPa | - | - | - | - |
| 1777473750 | 7.78° C | 37% | 1037.9 hPa | - | - | - | - |
| 1777472932 | 7.22° C | 37% | 1038 hPa | - | - | - | - |
| 1777472035 | 7.78° C | 39% | 1038 hPa | - | - | - | - |
| 1777471267 | 7.78° C | 38% | 1037.9 hPa | - | - | - | - |
| 1777470510 | 7.78° C | 37% | 1038 hPa | - | - | - | - |
| 1777469701 | 7.22° C | 40% | 1038.1 hPa | - | - | - | - |
* Rain since midnight (hover to see other rain measurements)
** Current wind speed in m/s (hover to see current wind gust speed)